Weather History for Fergus Falls, MN

Change the Weather History Date:

Saturday, October 8, 2011

  Actual Average Record
Temperature  
Mean Temperature 60 °F -  
Max Temperature 66 °F 57 °F 84 °F (2003)
Min Temperature 55 °F 38 °F 21 °F (2000)
Degree Days  
Heating Degree Days 4    
Growing Degree Days 10 (Base 50)    
Moisture  
Dew Point 46 °F    
Average Humidity 59    
Maximum Humidity 72    
Minimum Humidity 35    
Precipitation  
Precipitation 0.00 in - - ()
Sea Level Pressure  
Sea Level Pressure 30.00 in    
Wind  
Wind Speed 8 mph (West)    
Max Wind Speed 15 mph    
Max Gust Speed 21 mph    
Visibility 10 miles    
Events      
Averages and records for this station are not official NWS values.
T = Trace of Precipitation, MM = Missing Value Source: NWS Daily Summary

Daily Weather History Graph

Daily Weather History Graph

Search for Another Location

Airport:

Trip Planner

Search our weather history database for the weather conditions in past years. The results will help you decide how hot, cold, wet, or windy it might be!

Date:

Astronomy

Oct. 08, 2011 Rise Set
Actual Time 7:32 AM CDT 6:51 PM CDT
Civil Twilight 7:01 AM CDT 7:21 PM CDT
Nautical Twilight 6:27 AM CDT 7:56 PM CDT
Astronomical Twilight 5:52 AM CDT 8:31 PM CDT
Moon 5:09 PM CDT (10/8) 4:11 AM CDT (10/8)
Length of Visible Light 12h 19m
Length of Day
11h 19m
Waxing Gibbous, 90% of the Moon is Illuminated
Oct 8
Waxing Gibbous
Oct 11
Full
Oct 19
Last Quarter
Oct 26
New
Nov 2
First Quarter

Hourly Weather History & Observations

Time (CDT) Temp. Dew Point Humidity Pressure Visibility Wind Dir Wind Speed Gust Speed Precip Events Conditions
12:13 AM 66.2 °F 39.2 °F 37% 29.80 in 10.0 mi SSW 13.8 mph - N/A   Clear
12:33 AM 66.2 °F 37.4 °F 35% 29.81 in 10.0 mi SW 15.0 mph 20.7 mph N/A   Clear
12:53 AM 66.2 °F 37.4 °F 35% 29.82 in 10.0 mi SW 12.7 mph - N/A   Clear
1:13 AM 62.6 °F 37.4 °F 39% 29.82 in 10.0 mi WSW 6.9 mph - N/A   Clear
1:34 AM 60.8 °F 37.4 °F 42% 29.83 in 10.0 mi WSW 6.9 mph - N/A   Clear
1:53 AM 59.0 °F 37.4 °F 45% 29.83 in 10.0 mi SW 6.9 mph - N/A   Clear
2:13 AM 59.0 °F 37.4 °F 45% 29.84 in 10.0 mi WSW 9.2 mph - N/A   Clear
2:33 AM 60.8 °F 39.2 °F 45% 29.85 in 10.0 mi WSW 9.2 mph - N/A   Clear
2:53 AM 60.8 °F 39.2 °F 45% 29.86 in 10.0 mi SW 8.1 mph - N/A   Clear
3:14 AM 59.0 °F 41.0 °F 51% 29.86 in 10.0 mi SW 6.9 mph - N/A   Clear
3:33 AM 57.2 °F 42.8 °F 59% 29.87 in 10.0 mi SSW 6.9 mph - N/A   Clear
3:53 AM 57.2 °F 42.8 °F 59% 29.87 in 10.0 mi SW 6.9 mph - N/A   Clear
4:13 AM 59.0 °F 42.8 °F 55% 29.88 in 10.0 mi WSW 8.1 mph - N/A   Clear
4:33 AM 59.0 °F 42.8 °F 55% 29.88 in 10.0 mi SW 8.1 mph - N/A   Clear
4:53 AM 57.2 °F 42.8 °F 59% 29.89 in 10.0 mi SW 5.8 mph - N/A   Clear
5:33 AM 57.2 °F 42.8 °F 59% 29.92 in 10.0 mi WSW 6.9 mph - N/A   Clear
5:53 AM 55.4 °F 42.8 °F 63% 29.94 in 10.0 mi WSW 4.6 mph - N/A   Clear
6:13 AM 55.4 °F 42.8 °F 63% 29.94 in 10.0 mi SW 5.8 mph - N/A   Clear
6:33 AM 55.4 °F 44.6 °F 67% 29.94 in 10.0 mi WSW 5.8 mph - N/A   Clear
6:53 AM 57.2 °F 46.4 °F 67% 29.94 in 10.0 mi West 8.1 mph - N/A   Clear
7:13 AM 55.4 °F 46.4 °F 72% 29.93 in 10.0 mi WNW 8.1 mph - N/A   Clear
7:33 AM 57.2 °F 46.4 °F 67% 29.94 in 10.0 mi WSW 4.6 mph - N/A   Clear
7:53 AM 57.2 °F 46.4 °F 67% 29.96 in 10.0 mi South 4.6 mph - N/A   Scattered Clouds
8:12 AM 55.4 °F 46.4 °F 72% 29.96 in 10.0 mi SSW 5.8 mph - N/A   Clear
8:33 AM 57.2 °F 46.4 °F 67% 29.97 in 10.0 mi Calm Calm - N/A   Clear
8:53 AM 57.2 °F 46.4 °F 67% 29.98 in 10.0 mi South 3.5 mph - N/A   Clear
9:13 AM 57.2 °F 46.4 °F 67% 29.99 in 10.0 mi South 3.5 mph - N/A   Clear
9:33 AM 57.2 °F 48.2 °F 72% 29.98 in 10.0 mi Calm Calm - N/A   Scattered Clouds
9:53 AM 59.0 °F 48.2 °F 67% 30.00 in 10.0 mi SSW 3.5 mph - N/A   Clear
10:13 AM 59.0 °F 48.2 °F 67% 30.01 in 10.0 mi WSW 3.5 mph - N/A   Scattered Clouds
10:33 AM 60.8 °F 48.2 °F 63% 30.02 in 10.0 mi WSW 5.8 mph - N/A   Scattered Clouds
10:53 AM 60.8 °F 48.2 °F 63% 30.03 in 10.0 mi WSW 6.9 mph - N/A   Clear
11:13 AM 60.8 °F 50.0 °F 68% 30.03 in 10.0 mi West 6.9 mph - N/A   Clear
11:33 AM 62.6 °F 50.0 °F 63% 30.03 in 10.0 mi West 8.1 mph - N/A   Clear
11:53 AM 62.6 °F 50.0 °F 63% 30.03 in 10.0 mi WNW 9.2 mph - N/A   Clear
12:12 PM 62.6 °F 50.0 °F 63% 30.05 in 10.0 mi WNW 4.6 mph - N/A   Clear
12:33 PM 62.6 °F 48.2 °F 59% 30.06 in 10.0 mi West 4.6 mph - N/A   Clear
1:33 PM 64.4 °F 48.2 °F 56% 30.04 in 10.0 mi Calm Calm - N/A   Clear
2:13 PM 66.2 °F 48.2 °F 52% 30.04 in 10.0 mi SW 4.6 mph - N/A   Clear
2:33 PM 64.4 °F 48.2 °F 56% 30.05 in 10.0 mi SW 5.8 mph - N/A   Clear
2:53 PM 64.4 °F 48.2 °F 56% 30.05 in 10.0 mi West 5.8 mph - N/A   Scattered Clouds
3:13 PM 64.4 °F 50.0 °F 59% 30.05 in 10.0 mi WNW 5.8 mph - N/A   Scattered Clouds
3:33 PM 64.4 °F 48.2 °F 56% 30.04 in 10.0 mi West 5.8 mph - N/A   Scattered Clouds
3:53 PM 64.4 °F 48.2 °F 56% 30.04 in 10.0 mi West 6.9 mph - N/A   Scattered Clouds
4:13 PM 66.2 °F 48.2 °F 52% 30.05 in 10.0 mi Calm Calm - N/A   Scattered Clouds
4:33 PM 66.2 °F 48.2 °F 52% 30.05 in 10.0 mi West 4.6 mph - N/A   Scattered Clouds
4:53 PM 66.2 °F 48.2 °F 52% 30.05 in 10.0 mi Calm Calm - N/A   Scattered Clouds
5:14 PM 64.4 °F 50.0 °F 59% 30.05 in 10.0 mi WNW 3.5 mph - N/A   Scattered Clouds
5:33 PM 64.4 °F 48.2 °F 56% 30.06 in 10.0 mi West 4.6 mph - N/A   Scattered Clouds
5:53 PM 64.4 °F 50.0 °F 59% 30.07 in 10.0 mi West 3.5 mph - N/A   Scattered Clouds
6:13 PM 62.6 °F 51.8 °F 68% 30.08 in 10.0 mi NW 4.6 mph - N/A   Mostly Cloudy
6:33 PM 62.6 °F 51.8 °F 68% 30.08 in 10.0 mi NW 5.8 mph - N/A   Mostly Cloudy
7:33 PM 62.6 °F 51.8 °F 68% 30.11 in 10.0 mi NW 5.8 mph - N/A   Overcast
7:53 PM 60.8 °F 50.0 °F 68% 30.12 in 10.0 mi NW 6.9 mph - N/A   Mostly Cloudy
8:13 PM 62.6 °F 50.0 °F 63% 30.12 in 10.0 mi NW 6.9 mph - N/A   Mostly Cloudy
8:33 PM 62.6 °F 50.0 °F 63% 30.12 in 10.0 mi NNW 8.1 mph - N/A   Mostly Cloudy
8:53 PM 60.8 °F 48.2 °F 63% 30.13 in 10.0 mi NNW 9.2 mph - N/A   Mostly Cloudy
9:13 PM 60.8 °F 48.2 °F 63% 30.13 in 10.0 mi NNW 10.4 mph - N/A   Scattered Clouds
9:33 PM 60.8 °F 48.2 °F 63% 30.16 in 10.0 mi NNW 8.1 mph - N/A   Scattered Clouds
9:53 PM 60.8 °F 48.2 °F 63% 30.16 in 10.0 mi North 8.1 mph - N/A   Scattered Clouds
10:33 PM 59.0 °F 48.2 °F 67% 30.17 in 10.0 mi North 6.9 mph - N/A   Scattered Clouds
10:53 PM 59.0 °F 48.2 °F 67% 30.17 in 10.0 mi North 5.8 mph - N/A   Scattered Clouds
11:13 PM 59.0 °F 48.2 °F 67% 30.18 in 10.0 mi Calm Calm - N/A   Scattered Clouds
11:33 PM 59.0 °F 48.2 °F 67% 30.18 in 10.0 mi Calm Calm - N/A   Clear
11:53 PM 59.0 °F 48.2 °F 67% 30.17 in 10.0 mi Calm Calm - N/A   Clear